Temperature
14 14 14 14 14 14 15 14 15 15 15 16 16 16 16 16 16 16 16 15 15 15 15 15 15 15 15 15 15 14 14 14 14 14 14 14 14 14
14 14 14 14 14 14 14 14 14 14 15 15 15 15 15 15 15 15 15 15 15 15 15 15 15 15 14 14 14 14 14 14 14 14 14 14 14 14
13 14 14 14 14 14 14 14 14 14 14 14 15 15 15 15 15 15 15 15 15 14 14 14 14 14 14 14 14 14 14 14 14 14 14 14 13 13
13 13 13 13 14 14 14 14 14 14 14 14 14 14 14 14 14 14 14 14 14 14 14 14 14 14 14 14 14 13 13 13 13 13 13 13 13 13
13 13 13 13 13 13 13 13 13 13 13 14 14 14 14 14 14 14 14 14 14 14 13 14 13 13 13 13 13 13 13 13 13 13 13 13 12 12
13 13 13 13 13 13 13 13 13 13 13 13 14 13 13 13 13 13 13 13 13 13 13 13 13 13 13 12 12 12 13 13 12 12 12 12 12 12
12 13 13 13 13 13 13 13 13 13 13 13 13 13 13 13 13 13 13 13 12 12 12 12 12 12 12 12 12 12 12 12 12 12 12 11 11 11
12 12 13 13 13 13 13 13 13 13 13 13 13 13 13 13 13 13 13 12 12 12 12 12 12 12 11 11 11 12 12 11 11 11 11 11 11 11
12 12 12 12 13 13 13 13 13 13 13 13 13 13 13 13 13 13 12 12 12 12 12 11 11 11 11 11 11 11 11 11 11 11 11 11 11 11
12 12 12 12 12 12 12 12 12 12 13 13 13 13 13 13 13 13 12 12 12 11 11 11 11 10 10 10 10 10 10 11 11 10 10 10 10 10
12 12 12 12 12 12 12 12 12 12 12 12 12 12 12 12 12 12 12 12 11 11 11 11 10 10 10 10 10 10 10 10 10 10 10 10 10 10
11 11 11 11 11 11 12 12 12 12 12 12 12 12 12 12 12 12 12 12 12 11 11 11 10 10 10 9 9 9 9 9 9 9 9 9 9 9
11 11 11 11 11 11 11 12 12 12 12 12 12 12 12 12 12 12 12 12 11 11 11 11 10 10 10 9 9 9 9 9 9 9 9 9 9 9
11 11 11 11 11 11 11 11 11 11 12 12 12 11 11 11 11 11 11 11 11 11 11 11 11 10 10 10 9 9 9 9 8 8 8 8 8 8
11 11 11 11 11 11 11 11 11 11 11 11 11 11 11 11 11 11 11 11 11 11 11 10 10 10 10 10 10 9 9 8 8 8 8 8 8 8
11 11 11 11 11 11 11 11 11 11 11 11 11 11 11 11 10 10 10 10 10 10 10 10 10 10 10 10 9 9 9 8 8 8 8 8 8 8
11 11 11 11 11 11 11 11 11 11 11 11 11 10 10 10 10 10 10 10 10 10 10 10 10 9 9 9 9 9 9 8 8 8 8 8 7 7
10 10 11 10 10 10 10 10 10 10 10 10 10 10 10 10 10 10 10 10 10 9 9 9 9 9 9 9 9 8 8 8 8 8 8 7 7 7
10 10 10 10 10 10 10 10 10 10 10 10 10 10 9 9 9 9 9 9 9 9 9 9 9 9 8 8 8 8 8 8 8 8 8 7 7 7
10 10 10 10 10 10 10 10 10 10 10 9 9 9 9 9 9 9 9 9 9 8 8 8 8 8 8 8 8 8 8 8 8 8 7 7 7 7
10 10 10 10 10 10 10 10 10 9 9 9 9 9 9 9 9 9 8 8 8 8 8 8 8 8 8 8 8 8 8 7 7 7 7 7 7 7
10 10 10 10 10 10 10 10 9 9 9 9 9 9 9 9 8 8 8 8 8 8 8 8 7 7 7 7 7 7 7 7 7 7 7 7 7 7
11 11 11 10 10 10 10 10 10 9 9 9 9 9 9 8 8 8 8 8 8 8 8 7 7 7 7 7 7 7 7 7 7 7 7 6 6 7
Wind_Speed
4 5 4 4 4 4 4 4 5 4 4 3 2 3 4 5 7 8 7 8 9 10 10 10 9 8 8 8 7 6 6 5 5 4 4 4 3 3
2 3 3 3 3 4 4 4 4 4 4 3 3 2 3 4 7 7 7 8 8 8 9 9 9 8 8 7 7 7 6 6 5 5 4 3 3 3
2 3 3 3 3 4 4 4 3 3 3 2 1 1 3 4 4 6 7 7 7 8 8 9 9 9 8 8 8 7 7 6 5 5 4 4 3 3
2 2 3 3 3 3 4 5 4 4 4 3 2 1 2 4 4 4 5 6 7 8 9 9 9 9 8 8 8 8 7 7 6 6 5 4 3 3
3 3 3 3 4 3 5 5 4 4 3 4 3 1 2 3 4 4 5 5 7 8 9 9 9 9 9 9 9 8 8 8 7 7 6 5 5 4
1 2 2 3 4 4 4 5 5 5 5 4 4 3 2 3 4 5 5 4 5 7 9 10 11 12 11 10 9 8 8 9 9 8 7 6 6 5
2 1 1 1 3 3 4 5 6 5 5 5 4 3 4 4 5 4 6 6 4 4 6 6 8 8 8 9 9 9 9 9 9 8 8 8 7 7
3 2 2 1 1 2 3 5 6 7 7 5 4 5 5 4 5 6 6 5 3 3 4 5 5 6 6 8 9 10 10 10 10 9 9 9 8 8
3 3 3 3 3 3 4 5 3 4 6 6 6 5 6 6 7 7 6 5 4 5 5 4 4 4 5 8 10 10 10 10 10 10 10 9 9 9
5 4 3 3 3 4 4 5 4 3 3 4 5 5 5 7 7 7 7 7 6 4 3 4 3 3 3 6 9 10 10 10 10 10 10 10 10 10
6 5 4 4 5 6 5 5 5 5 6 8 8 8 10 11 10 9 8 8 5 3 2 3 4 3 2 3 5 8 9 9 9 9 9 9 9 9
6 6 7 6 7 6 5 5 6 4 5 7 7 8 8 8 9 7 8 8 5 3 2 3 4 3 3 1 2 4 6 7 9 9 8 8 8 7
5 5 5 8 8 8 7 5 6 6 6 7 7 6 6 5 5 5 4 6 5 3 5 4 4 3 3 3 1 2 3 3 5 6 7 7 7 6
4 3 4 7 9 9 7 8 9 8 5 6 6 5 5 4 5 6 8 8 6 4 7 5 4 4 4 4 3 2 2 2 3 3 4 6 6 6
3 6 7 9 9 7 9 9 7 5 5 6 6 4 3 4 4 5 7 9 11 10 7 3 4 5 4 4 4 3 2 1 2 2 2 2 2 2
4 6 8 9 8 7 7 6 5 4 5 5 4 3 3 4 4 3 4 4 5 5 8 9 6 5 3 3 4 4 3 3 2 2 2 1 1 1
2 3 4 4 4 4 4 4 4 4 4 3 4 4 4 4 3 3 3 3 3 3 3 4 9 10 6 4 4 3 3 2 2 3 2 1 1 3
3 2 2 2 2 2 2 2 3 3 3 3 4 4 4 4 3 3 3 4 4 4 3 2 2 3 3 4 3 4 3 2 2 2 2 2 2 3
2 1 1 1 1 1 1 1 1 1 1 3 3 3 4 3 3 4 4 4 4 3 2 2 2 3 2 1 1 1 4 3 3 2 2 3 3 2
1 2 2 2 2 2 2 1 1 1 1 2 2 3 3 3 3 4 4 4 4 3 2 1 1 2 3 3 2 1 2 3 4 3 2 1 2 4
3 3 3 3 2 3 2 2 3 2 2 2 2 3 3 3 3 4 4 5 4 3 3 2 1 3 3 3 2 0 1 3 5 4 3 2 1 1
4 4 4 4 4 3 3 3 3 3 3 3 3 3 4 4 4 5 5 4 4 3 3 2 2 2 2 2 2 2 1 1 2 6 8 7 4 3
6 6 5 5 5 4 4 5 5 4 4 4 4 4 4 4 4 4 5 5 4 4 3 3 2 1 1 2 2 2 2 1 1 1 3 10 15 15
Wind_Direction
200 194 194 194 188 188 182 178 171 183 213 214 202 199 190 182 185 183 185 189 190 192 189 187 187 187 189 194 193 188 184 181 183 186 190 187 191 196
193 185 190 194 187 185 187 184 186 180 196 199 202 183 172 177 177 170 169 169 171 173 173 174 172 170 173 178 175 169 166 169 171 171 175 180 179 188
195 186 193 189 190 188 183 182 188 177 181 183 172 145 152 157 149 148 146 141 143 154 155 158 158 157 157 157 156 155 154 155 158 161 159 164 174 177
196 186 197 196 195 192 187 188 187 176 166 172 168 156 149 151 146 140 129 134 131 141 141 139 142 144 146 142 139 140 144 146 144 139 137 142 144 142
190 188 196 190 202 203 192 188 185 180 165 164 165 149 133 135 132 122 119 114 122 126 126 127 131 133 136 133 134 133 138 144 142 137 134 127 119 114
177 195 204 201 205 200 195 192 184 176 165 159 157 152 145 141 141 138 128 112 109 107 104 106 110 111 115 118 121 122 126 131 132 127 121 117 113 108
33 13 251 222 215 199 189 185 179 172 163 164 165 160 162 161 158 145 136 122 101 107 105 94 95 91 92 102 110 114 117 119 119 118 117 115 110 106
22 4 8 44 88 138 156 164 172 171 170 169 172 172 171 159 145 147 143 141 132 127 115 99 92 91 82 91 103 109 111 112 113 114 114 111 109 107
29 28 40 48 62 80 88 102 115 141 163 165 168 173 166 162 153 154 151 138 130 142 123 105 95 91 77 92 99 102 107 109 111 110 109 108 108 105
32 37 50 42 68 90 91 82 73 74 129 153 156 161 155 153 154 146 136 115 99 100 106 111 110 95 78 76 93 99 103 108 110 110 110 108 106 106
28 34 47 54 73 90 97 95 84 67 77 102 112 121 128 133 138 134 136 134 126 116 89 115 127 108 85 65 72 90 97 103 109 113 113 113 111 106
28 28 38 51 67 78 90 101 94 78 85 88 88 91 102 116 127 143 151 147 135 136 142 122 139 137 122 81 63 75 89 96 100 104 113 117 117 111
33 22 24 47 63 68 71 86 98 99 95 97 95 89 85 85 85 90 111 141 141 140 159 137 141 140 130 135 123 85 94 99 97 94 104 113 118 121
35 15 27 56 65 67 73 83 90 92 92 94 94 91 92 88 86 85 86 79 74 111 148 141 138 152 141 140 152 146 114 107 112 109 107 103 100 107
38 41 52 60 64 67 70 74 78 83 90 95 96 88 85 96 99 94 84 81 73 69 80 104 129 140 135 145 149 152 155 148 138 132 122 113 109 106
39 46 54 57 59 61 60 57 58 77 96 99 97 90 87 90 88 95 105 98 85 62 46 59 104 128 126 122 141 153 157 160 158 156 140 131 158 185
47 47 42 43 46 46 50 54 56 69 81 84 100 101 98 96 85 78 97 94 101 107 72 49 65 77 79 116 130 140 144 144 158 156 148 167 252 237
78 66 56 55 60 60 70 57 55 71 81 98 106 110 115 113 102 83 85 103 114 119 116 108 102 84 70 51 58 144 145 149 151 152 156 184 255 253
89 114 136 139 131 122 114 104 98 88 100 113 118 122 121 117 116 116 112 111 115 122 124 123 118 118 124 170 353 103 160 158 153 165 189 201 231 253
170 198 203 197 189 183 177 166 143 120 114 130 134 138 138 134 134 139 141 140 139 135 131 123 142 154 166 178 181 175 175 167 170 183 192 210 257 279
217 217 215 207 203 197 190 180 171 167 165 160 163 163 158 148 153 158 156 154 147 152 163 182 179 138 118 106 105 238 247 214 203 188 176 182 245 289
220 218 217 211 205 201 192 182 178 181 180 180 184 181 174 168 171 172 169 167 172 169 163 146 134 127 128 154 179 198 231 256 239 228 219 208 187 208
218 216 214 210 207 199 193 191 191 193 192 191 190 186 178 177 178 175 176 174 166 164 157 158 157 150 154 169 179 194 209 218 235 256 255 241 239 247
Height
1491 1492 1494 1497 1499 1501 1504 1507 1511 1512 1514 1516 1518 1520 1523 1525 1528 1530 1532 1534 1536 1538 1541 1542 1544 1546 1548 1550 1551 1552 1553 1554 1555 1556 1556 1557 1557 1557
1488 1490 1491 1493 1496 1498 1500 1503 1505 1508 1510 1512 1514 1517 1519 1521 1524 1526 1528 1531 1533 1535 1537 1539 1541 1543 1545 1546 1548 1549 1550 1552 1552 1553 1554 1554 1554 1555
1485 1487 1489 1491 1492 1494 1497 1499 1501 1504 1506 1509 1511 1513 1516 1518 1521 1523 1525 1527 1530 1532 1534 1536 1538 1540 1542 1543 1545 1546 1547 1548 1549 1550 1551 1551 1552 1552
1483 1485 1486 1488 1490 1491 1494 1496 1498 1500 1503 1505 1508 1510 1512 1515 1517 1520 1522 1524 1527 1529 1531 1533 1535 1536 1539 1540 1541 1543 1544 1545 1546 1547 1548 1548 1549 1549
1481 1483 1484 1486 1487 1488 1490 1492 1494 1497 1499 1502 1504 1507 1509 1512 1514 1517 1519 1521 1524 1526 1528 1530 1532 1534 1536 1537 1538 1540 1541 1542 1543 1544 1545 1546 1546 1547
1480 1481 1482 1483 1484 1486 1487 1489 1491 1493 1496 1499 1502 1504 1507 1509 1512 1514 1517 1519 1521 1523 1526 1528 1530 1531 1533 1535 1536 1537 1538 1539 1540 1541 1542 1543 1544 1544
1479 1480 1481 1482 1483 1484 1485 1487 1489 1490 1493 1496 1499 1501 1504 1506 1509 1512 1514 1517 1519 1522 1524 1526 1528 1529 1531 1533 1535 1535 1536 1537 1538 1539 1540 1541 1541 1542
1479 1479 1480 1481 1482 1483 1484 1485 1487 1488 1490 1493 1496 1498 1501 1504 1507 1509 1512 1515 1517 1520 1522 1524 1526 1528 1530 1532 1533 1534 1535 1536 1537 1538 1538 1539 1540 1540
1479 1479 1480 1480 1481 1482 1483 1484 1485 1487 1489 1491 1493 1496 1498 1501 1504 1507 1510 1513 1515 1518 1521 1523 1525 1527 1530 1531 1532 1533 1534 1535 1536 1536 1537 1538 1538 1538
1480 1480 1481 1481 1481 1482 1483 1484 1485 1486 1487 1489 1492 1494 1497 1500 1503 1506 1508 1511 1514 1517 1520 1522 1524 1527 1529 1530 1532 1533 1533 1534 1535 1535 1536 1536 1537 1537
1482 1482 1482 1482 1482 1483 1483 1484 1485 1486 1488 1489 1491 1494 1496 1499 1501 1505 1507 1510 1512 1515 1518 1521 1523 1526 1528 1529 1531 1532 1533 1533 1534 1534 1535 1535 1535 1536
1485 1485 1485 1485 1485 1485 1485 1485 1486 1487 1489 1490 1492 1494 1496 1499 1502 1504 1507 1509 1511 1514 1517 1520 1522 1525 1527 1529 1530 1531 1532 1533 1533 1533 1534 1534 1534 1534
1488 1488 1488 1488 1488 1487 1487 1488 1488 1489 1491 1492 1494 1495 1497 1500 1502 1504 1507 1510 1512 1514 1516 1519 1521 1523 1526 1528 1530 1531 1532 1532 1532 1532 1533 1533 1533 1533
1491 1491 1491 1490 1490 1490 1490 1491 1491 1492 1493 1494 1495 1497 1499 1501 1503 1505 1508 1510 1512 1514 1516 1518 1520 1522 1524 1526 1528 1529 1530 1531 1531 1531 1532 1532 1532 1532
1494 1494 1493 1493 1493 1493 1493 1494 1494 1495 1495 1496 1497 1499 1500 1502 1504 1506 1508 1510 1512 1514 1516 1518 1520 1522 1523 1525 1526 1527 1529 1529 1530 1530 1531 1531 1531 1531
1496 1496 1496 1496 1496 1496 1496 1496 1496 1497 1497 1498 1499 1500 1502 1503 1505 1507 1508 1510 1512 1513 1515 1517 1519 1521 1522 1524 1525 1526 1527 1528 1528 1529 1530 1530 1530 1530
1497 1497 1497 1497 1497 1497 1497 1498 1498 1499 1499 1500 1501 1502 1503 1504 1506 1507 1509 1510 1512 1513 1514 1516 1517 1519 1521 1522 1523 1524 1525 1526 1527 1528 1528 1528 1529 1529
1499 1498 1498 1498 1498 1498 1499 1499 1499 1500 1500 1501 1502 1503 1504 1505 1506 1508 1509 1510 1511 1513 1514 1515 1517 1518 1520 1521 1523 1523 1524 1525 1525 1526 1526 1527 1527 1527
1499 1498 1498 1499 1499 1499 1499 1499 1500 1500 1501 1502 1502 1503 1504 1505 1506 1507 1509 1510 1511 1512 1513 1515 1516 1517 1519 1520 1521 1522 1523 1523 1524 1524 1524 1525 1525 1525
1498 1498 1498 1498 1498 1498 1499 1499 1500 1500 1501 1502 1503 1503 1504 1505 1506 1507 1508 1509 1510 1512 1513 1514 1515 1516 1518 1519 1519 1520 1521 1521 1522 1522 1522 1522 1522 1522
1496 1496 1496 1496 1497 1497 1497 1498 1499 1499 1500 1501 1502 1503 1504 1505 1505 1507 1508 1509 1510 1511 1512 1513 1514 1515 1516 1517 1518 1518 1519 1519 1520 1520 1520 1520 1519 1519
1494 1494 1494 1494 1494 1495 1495 1496 1497 1497 1498 1499 1500 1501 1502 1503 1504 1505 1506 1507 1508 1509 1511 1512 1512 1513 1514 1515 1515 1516 1516 1517 1517 1517 1517 1517 1517 1516
1491 1491 1491 1491 1491 1492 1492 1493 1494 1495 1495 1496 1498 1499 1500 1501 1502 1503 1504 1505 1506 1507 1508 1509 1510 1511 1512 1512 1513 1513 1514 1514 1514 1514 1514 1514 1514 1513